Келимане

Мозамбик     17°52′21″S   36°53′16″E
темп.,
°C
ветер,
м/с
пор.,
м/с
влажн.,
%
обл.,
%
осадки,
мм/ч
давл.,
гПа
погр.,
м
20 апреля, вт
вт2023:00+21зюз1186100 0.0 101819
02:00+19з2393100 0.0 101754
05:00+19зюз229430 0.1 101738
08:00+24зюз237554 0.1 1019355
11:00+28ююз4458100 0.1 10181554
14:00+26ююз4664100 0.6 10161163
17:00+24ююз3873100 0.1 1017643
20:00+22зюз2784100 0.1 1018254
21 апреля, ср
ср2123:00+21зюз2594100 0.1 1018143
02:00+20з2693100 0.1 1016158
05:00+20з259865 0.3 1016133
08:00+23зюз358796 0.4 1018326
11:00+26ююз358539 2.5 1017714
14:00+26ю4586100 5.9 1015752
17:00+23ююз379421 2.5 1016254
20:00+21юз259834 3.3 1018145
22 апреля, чт
чт2223:00+21юз129950 0.5 101756
02:00+21зюз129927 2.1 101652
05:00+20юз239925 1.9 101777
08:00+23ююз1394100 2.9 1019134
11:00+27ю457182 1.4 10181065
14:00+27ю466469 2.1 10161184
17:00+24ю38734 0.0 1016386
20:00+22ю248111 0.0 101899
23 апреля, пт
пт2323:00+21ююз118010 0.0 101831
02:00+20зюз11840 0.0 101615
05:00+19з228817 0.0 101647
08:00+23зюз23720 0.0 1017302
11:00+29ю235029 0.0 10161858
14:00+28ююв445368 0.1 10131415
17:00+23ююв26720 0.0 1014155
20:00+21ююв22830 0.0 101534
24 апреля, сб
сб2423:00+20юв11850 0.0 101512
02:00+19зсз11910 0.0 101412
05:00+18зсз22951 0.0 101530
08:00+23зсз22740 0.0 1016292
11:00+30ююз01510 0.0 10151324
14:00+29юв32480 0.0 10131356
17:00+23юв36741 0.0 1013175
20:00+21вюв23790 0.0 101566